TVARMINN Weather Reports


time (UTC)temp
C
wind
direction
speed
KPH
gust
KPH
rain 1hr
cm
rain 24hr
cm
rain mn
cm
humidity
%
barometer
mb
20260507094728 7 0.0 0.0 0.00 0.00 0.00 58 1015.9
20260507092727 8 0.0 0.0 0.00 0.00 0.00 60 1015.9
20260507090728 7 0.0 0.0 0.00 0.00 0.00 60 1016.0
20260507084727 7 0.0 0.0 0.00 0.00 0.00 59 1015.9
20260507082728 7 0.0 0.0 0.00 0.00 0.00 55 1016.0
20260507080726 7 0.0 0.0 0.00 0.00 0.00 57 1016.0
20260507074727 8 0.0 0.0 0.00 0.00 0.00 51 1016.0
20260507072727 7 0.0 0.0 0.00 0.00 0.00 49 1016.0
20260507070727 7 0.0 0.0 0.00 0.00 0.00 46 1016.1
20260507064727 7 0.0 0.0 0.00 0.00 0.00 47 1016.0
20260507062727 7 0.0 0.0 0.00 0.00 0.00 44 1015.9
20260507060727 7 0.0 0.0 0.00 0.00 0.00 41 1015.8
20260507054727 7 0.0 0.0 0.00 0.00 0.00 53 1015.8
20260507052726 6 0.0 0.0 0.00 0.00 0.00 54 1015.7
20260507050726 6 0.0 0.0 0.00 0.00 0.00 53 1015.6
20260507044726 5 0.0 0.0 0.00 0.00 0.00 56 1015.6
20260507042726 4 0.0 0.0 0.00 0.00 0.00 59 1015.6
20260507040728 3 0.0 0.0 0.00 0.00 0.00 61 1015.5
20260507034727 3 0.0 0.0 0.00 0.00 0.00 55 1015.5
20260507032727 3 0.0 0.0 0.00 0.00 0.00 61 1015.4
20260507030727 3 0.0 0.0 0.00 0.00 0.00 56 1015.2
20260507024726 3 0.0 0.0 0.00 0.00 0.00 56 1015.2
20260507022726 3 0.0 0.0 0.00 0.00 0.00 56 1015.2
20260507020726 3 0.0 0.0 0.00 0.00 0.00 54 1015.2
20260507014726 3 0.0 0.0 0.00 0.00 0.00 56 1015.1
20260507012726 5 0.0 0.0 0.00 0.00 0.00 49 1015.1
20260507010726 5 0.0 0.0 0.00 0.00 0.00 49 1015.0
20260507004726 5 0.0 0.0 0.00 0.00 0.00 46 1014.8
20260507002726 5 0.0 0.0 0.00 0.00 0.00 50 1014.7
20260507000726 3 0.0 0.0 0.00 0.00 0.00 59 1014.7
20260506234727 2 0.0 0.0 0.00 0.00 0.00 63 1014.6
20260506232725 3 0.0 0.0 0.00 0.00 0.00 57 1014.7
20260506230727 3 0.0 0.0 0.00 0.00 0.00 58 1014.7
20260506224725 3 0.0 0.0 0.00 0.00 0.00 53 1014.8
20260506222726 4 0.0 0.0 0.00 0.00 0.00 56 1014.7
20260506220726 4 0.0 0.0 0.00 0.00 0.00 55 1014.7
20260506214725 4 0.0 0.0 0.00 0.00 0.00 53 1014.6
20260506212726 4 0.0 0.0 0.00 0.00 0.00 55 1014.5
20260506210725 5 0.0 0.0 0.00 0.00 0.00 54 1014.5
20260506204725 5 0.0 0.0 0.00 0.00 0.00 52 1014.5
20260506202725 5 0.0 0.0 0.00 0.00 0.00 53 1014.5
20260506200726 4 0.0 0.0 0.00 0.00 0.00 61 1014.6
20260506194725 4 0.0 0.0 0.00 0.00 0.00 61 1014.6
20260506192725 4 0.0 0.0 0.00 0.00 0.00 56 1014.7
20260506190725 5 0.0 0.0 0.00 0.00 0.00 55 1014.6
20260506184724 6 0.0 0.0 0.00 0.00 0.00 51 1014.4
20260506182725 7 0.0 0.0 0.00 0.00 0.00 47 1014.3
20260506180725 7 0.0 0.0 0.00 0.00 0.00 43 1014.3
20260506174725 8 0.0 0.0 0.00 0.00 0.00 41 1014.3
20260506172724 8 0.0 0.0 0.00 0.00 0.00 41 1014.4
20260506170724 8 0.0 0.0 0.00 0.00 0.00 42 1014.3
20260506164724 8 0.0 0.0 0.00 0.00 0.00 41 1014.4
20260506162725 8 0.0 0.0 0.00 0.00 0.00 40 1014.3
20260506160724 9 0.0 0.0 0.00 0.00 0.00 38 1014.3
20260506154724 9 0.0 0.0 0.00 0.00 0.00 38 1014.4
20260506152725 9 0.0 0.0 0.00 0.00 0.00 38 1014.4
20260506150724 9 0.0 0.0 0.00 0.00 0.00 39 1014.5
20260506144723 9 0.0 0.0 0.00 0.00 0.00 39 1014.6
20260506142724 9 0.0 0.0 0.00 0.00 0.00 52 1014.9
20260506140723 8 0.0 0.0 0.00 0.00 0.00 48 1014.8
20260506134724 8 0.0 0.0 0.00 0.00 0.00 49 1014.7
20260506130723 8 0.0 0.0 0.00 0.00 0.00 50 1014.8
20260506124723 8 0.0 0.0 0.00 0.00 0.00 60 1014.8
20260506122723 8 0.0 0.0 0.00 0.00 0.00 63 1014.9
20260506120723 8 0.0 0.0 0.00 0.00 0.00 54 1014.9
20260506114724 8 0.0 0.0 0.00 0.00 0.00 55 1014.9
20260506112724 8 0.0 0.0 0.00 0.00 0.00 63 1014.9
20260506110723 8 0.0 0.0 0.00 0.00 0.00 63 1014.8
20260506104724 8 0.0 0.0 0.00 0.00 0.00 65 1014.9
20260506102725 8 0.0 0.0 0.00 0.00 0.00 68 1014.7
20260506100725 8 0.0 0.0 0.00 0.00 0.00 68 1014.6